^^
Saratoga-Weather Station Historical Data
Daily Summary for July 23, 2020 Units:  English    Metric   Both
Daily Weekly Monthly Yearly Custom
  High: Low: Average:
Temperature: 75.6 °F 47.8 °F 61 °F
Dew Point: 47.1 °F 36.7 °F 40.5 °F
Humidity: 70% 26% 49%
Wind Speed: 8.1mph 0mph 1.2mph
Wind Gust: 9mph - -
Wind- - SSE
Pressure: 30.1 in 30 in -
Precipitation: 0 in    
Historical Graphs
 
 
Tabular Data for July 23, 2020
Time Temperature Dew Point Pressure Wind Wind Speed Wind Gust Humidity Rainfall Rate (Hourly) solar
00:01 54.9 °F 37.6 °F 30 in SW 0.9 mph 1 mph 52% 0 in 0 W/m2
00:06 55 °F 36.7 °F 30 in West 0.9 mph 3 mph 50% 0 in 0 W/m2
00:11 55.6 °F 37.2 °F 30 in SW 0.9 mph 2 mph 50% 0 in 0 W/m2
00:16 55.6 °F 37.8 °F 30 in Calm   3 mph 51% 0 in 0 W/m2
00:21 55.4 °F 38.1 °F 30 in Calm   2 mph 52% 0 in 0 W/m2
00:26 55 °F 37.8 °F 30 in SW 0.9 mph 3 mph 52% 0 in 0 W/m2
00:31 54.9 °F 37.6 °F 30 in Calm   2 mph 52% 0 in 0 W/m2
00:36 54.5 °F 37.8 °F 30 in SW 0.9 mph 1 mph 53% 0 in 0 W/m2
00:41 54.1 °F 37.9 °F 30 in SW 0.9 mph 2 mph 54% 0 in 0 W/m2
00:46 53.8 °F 37.9 °F 30 in SW 2 mph 2 mph 55% 0 in 0 W/m2
00:51 53.4 °F 37.6 °F 30 in Calm   1 mph 55% 0 in 0 W/m2
00:56 53.4 °F 38.1 °F 30 in SW 0.9 mph 2 mph 56% 0 in 0 W/m2
01:01 53.4 °F 38.1 °F 30 in SW 2 mph 2 mph 56% 0 in 0 W/m2
01:06 53.2 °F 38.5 °F 30 in SW 0.9 mph 1 mph 57% 0 in 0 W/m2
01:11 53.1 °F 38.3 °F 30 in Calm   3 mph 57% 0 in 0 W/m2
01:16 53.1 °F 38.3 °F 30 in Calm   2 mph 57% 0 in 0 W/m2
01:21 53.1 °F 38.3 °F 30 in Calm   3 mph 57% 0 in 0 W/m2
01:26 53.2 °F 38.5 °F 30 in Calm   1 mph 57% 0 in 0 W/m2
01:32 53.2 °F 38.5 °F 30 in WSW 0.9 mph 2 mph 57% 0 in 0 W/m2
01:37 53.2 °F 38.5 °F 30 in West 0.9 mph 3 mph 57% 0 in 0 W/m2
01:42 53.2 °F 38.5 °F 30 in NNW 2 mph 2 mph 57% 0 in 0 W/m2
01:47 53.2 °F 38.8 °F 30 in WSW 2 mph 3 mph 58% 0 in 0 W/m2
01:52 53.2 °F 38.5 °F 30 in WSW 0.9 mph 2 mph 57% 0 in 0 W/m2
01:57 53.2 °F 39.2 °F 30 in WSW 0.9 mph 3 mph 59% 0 in 0 W/m2
02:02 53.2 °F 39.2 °F 30 in WSW 0.9 mph 1 mph 59% 0 in 0 W/m2
02:07 52.9 °F 39 °F 30 in WSW 2 mph 2 mph 59% 0 in 0 W/m2
02:12 52.5 °F 39 °F 30 in Calm   1 mph 60% 0 in 0 W/m2
02:17 52.3 °F 38.5 °F 30 in WNW 0.9 mph 2 mph 59% 0 in 0 W/m2
02:22 52.5 °F 38.7 °F 30 in WNW 0.9 mph 2 mph 59% 0 in 0 W/m2
02:27 52.9 °F 38.5 °F 30 in WNW 0.9 mph 4 mph 58% 0 in 0 W/m2
02:32 53.1 °F 38.3 °F 30 in WNW 2 mph 2 mph 57% 0 in 0 W/m2
02:37 53.2 °F 38.8 °F 30 in Calm   3 mph 58% 0 in 0 W/m2
02:42 53.4 °F 38.1 °F 30 in WNW 0.9 mph 3 mph 56% 0 in 0 W/m2
02:47 53.8 °F 38.5 °F 30 in WSW 0.9 mph 2 mph 56% 0 in 0 W/m2
02:52 54 °F 38.7 °F 30 in South 2 mph 2 mph 56% 0 in 0 W/m2
02:57 53.8 °F 38.8 °F 30 in South 0.9 mph 2 mph 57% 0 in 0 W/m2
03:02 53.4 °F 39 °F 30 in SSW 2 mph 2 mph 58% 0 in 0 W/m2
03:07 53.2 °F 38.8 °F 30 in SSW 0.9 mph 1 mph 58% 0 in 0 W/m2
03:12 52.7 °F 39.2 °F 30 in Calm   1 mph 60% 0 in 0 W/m2
03:17 52.3 °F 38.5 °F 30 in Calm   3 mph 59% 0 in 0 W/m2
03:22 52.2 °F 38.7 °F 30 in Calm   1 mph 60% 0 in 0 W/m2
03:27 52.2 °F 38.7 °F 30 in NW 0.9 mph 1 mph 60% 0 in 0 W/m2
03:32 52.2 °F 38.7 °F 30 in Calm   2 mph 60% 0 in 0 W/m2
03:37 52.2 °F 39.2 °F 30 in NNE 0.9 mph 1 mph 61% 0 in 0 W/m2
03:42 52 °F 39.4 °F 30 in Calm   3 mph 62% 0 in 0 W/m2
03:47 51.4 °F 38.8 °F 30 in Calm   2 mph 62% 0 in 0 W/m2
03:52 51.4 °F 38.5 °F 30 in Calm   2 mph 61% 0 in 0 W/m2
03:57 51.6 °F 38.1 °F 30 in Calm   1 mph 60% 0 in 0 W/m2
04:02 51.8 °F 38.3 °F 30 in ESE 0.9 mph 1 mph 60% 0 in 0 W/m2
04:07 51.8 °F 38.3 °F 30 in Calm   2 mph 60% 0 in 0 W/m2
04:12 51.8 °F 38.8 °F 30 in Calm   2 mph 61% 0 in 0 W/m2
04:17 51.6 °F 38.7 °F 30 in WSW 0.9 mph 2 mph 61% 0 in 0 W/m2
04:23 51.3 °F 38.7 °F 30 in SW 0.9 mph 2 mph 62% 0 in 0 W/m2
04:28 51.1 °F 38.8 °F 30 in Calm   2 mph 63% 0 in 0 W/m2
04:33 50.7 °F 39 °F 30 in Calm   2 mph 64% 0 in 0 W/m2
04:38 50.5 °F 38.8 °F 30 in Calm     64% 0 in 0 W/m2
04:43 50.4 °F 38.7 °F 30 in Calm   2 mph 64% 0 in 0 W/m2
04:48 50.4 °F 38.7 °F 30 in SW 2 mph 2 mph 64% 0 in 0 W/m2
04:53 50.2 °F 38.5 °F 30 in Calm   1 mph 64% 0 in 0 W/m2
04:58 50 °F 38.7 °F 30 in SSW 2 mph 2 mph 65% 0 in 0 W/m2
05:03 49.8 °F 38.8 °F 30 in Calm   2 mph 66% 0 in 0 W/m2
05:08 49.5 °F 38.7 °F 30 in SSW 2 mph 2 mph 66% 0 in 0 W/m2
05:13 49.3 °F 38.8 °F 30 in SSW 0.9 mph 2 mph 67% 0 in 0 W/m2
05:18 48.9 °F 38.5 °F 30 in Calm   1 mph 67% 0 in 0 W/m2
05:23 48.7 °F 38.7 °F 30 in SSW 0.9 mph 1 mph 68% 0 in 0 W/m2
05:28 48.7 °F 38.7 °F 30 in SSW 0.9 mph 2 mph 68% 0 in 0 W/m2
05:33 48.6 °F 38.5 °F 30 in Calm   1 mph 68% 0 in 0 W/m2
05:38 48.6 °F 38.8 °F 30 in SSW 0.9 mph 2 mph 69% 0 in 0 W/m2
05:43 48.4 °F 38.7 °F 30 in Calm   1 mph 69% 0 in 0 W/m2
05:48 48.2 °F 38.5 °F 30 in Calm   1 mph 69% 0 in 0 W/m2
05:53 48 °F 38.3 °F 30 in Calm     69% 0 in 0 W/m2
05:58 47.8 °F 38.5 °F 30 in SSW 0.9 mph 2 mph 70% 0 in 0 W/m2
06:03 48 °F 38.7 °F 30 in Calm     70% 0 in 0 W/m2
06:08 48 °F 38.7 °F 30 in SSW 0.9 mph 1 mph 70% 0 in 0 W/m2
06:13 48.2 °F 38.8 °F 30 in Calm   1 mph 70% 0 in 0 W/m2
06:18 48 °F 38.7 °F 30 in Calm     70% 0 in 0 W/m2
06:23 48 °F 38.7 °F 30 in Calm     70% 0 in 0 W/m2
06:28 47.8 °F 38.5 °F 30 in Calm   1 mph 70% 0 in 5 W/m2
06:33 47.8 °F 38.5 °F 30.1 in Calm   1 mph 70% 0 in 7 W/m2
06:38 48.6 °F 38.1 °F 30.1 in Calm   2 mph 67% 0 in 9 W/m2
06:43 48.9 °F 38.1 °F 30.1 in Calm   1 mph 66% 0 in 11 W/m2
06:48 49.1 °F 38.7 °F 30.1 in SSW 0.9 mph 2 mph 67% 0 in 12 W/m2
06:53 48.9 °F 38.8 °F 30.1 in SSW 0.9 mph 2 mph 68% 0 in 16 W/m2
06:58 48.9 °F 38.8 °F 30.1 in SSW 0.9 mph 1 mph 68% 0 in 18 W/m2
07:03 48.9 °F 38.5 °F 30.1 in SSW 0.9 mph 1 mph 67% 0 in 19 W/m2
07:08 49.3 °F 38.5 °F 30.1 in SSW 2 mph 2 mph 66% 0 in 21 W/m2
07:13 49.5 °F 37.8 °F 30.1 in Calm     64% 0 in 23 W/m2
07:18 49.6 °F 38.7 °F 30.1 in Calm   1 mph 66% 0 in 25 W/m2
07:23 49.6 °F 38.7 °F 30.1 in SSE 2 mph 2 mph 66% 0 in 26 W/m2
07:28 49.6 °F 38.7 °F 30.1 in Calm     66% 0 in 28 W/m2
07:33 50 °F 38.3 °F 30.1 in Calm   2 mph 64% 0 in 30 W/m2
07:38 50.4 °F 39 °F 30.1 in Calm     65% 0 in 40 W/m2
07:43 50.5 °F 38.8 °F 30.1 in Calm   3 mph 64% 0 in 58 W/m2
07:48 50.9 °F 38.3 °F 30.1 in NNW 0.9 mph 2 mph 62% 0 in 35 W/m2
07:53 51.3 °F 38.3 °F 30.1 in NNE 0.9 mph 2 mph 61% 0 in 144 W/m2
07:58 51.6 °F 38.7 °F 30.1 in Calm   2 mph 61% 0 in 120 W/m2
08:03 52 °F 39 °F 30.1 in WNW 0.9 mph 1 mph 61% 0 in 195 W/m2
08:08 52.3 °F 38.8 °F 30.1 in Calm   1 mph 60% 0 in 213 W/m2
08:13 52.7 °F 40.5 °F 30.1 in North 0.9 mph 1 mph 63% 0 in 225 W/m2
08:18 53.4 °F 40.3 °F 30.1 in NE 0.9 mph 2 mph 61% 0 in 239 W/m2
08:23 54.1 °F 40.1 °F 30.1 in Calm   2 mph 59% 0 in 255 W/m2
08:28 54.7 °F 40.3 °F 30.1 in ESE 2.9 mph 4 mph 58% 0 in 267 W/m2
08:33 54.7 °F 40.3 °F 30.1 in East 0.9 mph 1 mph 58% 0 in 276 W/m2
08:38 55 °F 40.5 °F 30.1 in NE 2 mph 3 mph 58% 0 in 292 W/m2
08:43 55.2 °F 40.6 °F 30.1 in NNW 0.9 mph 1 mph 58% 0 in 304 W/m2
08:48 55.6 °F 40.6 °F 30.1 in NNE 0.9 mph 3 mph 57% 0 in 316 W/m2
08:54 55.9 °F 39.9 °F 30.1 in Calm   2 mph 55% 0 in 332 W/m2
08:59 56.1 °F 40.1 °F 30.1 in ENE 0.9 mph 4 mph 55% 0 in 350 W/m2
09:04 56.5 °F 40.5 °F 30.1 in ENE 0.9 mph 2 mph 55% 0 in 362 W/m2
09:09 56.7 °F 39.2 °F 30.1 in ESE 4 mph 6 mph 52% 0 in 374 W/m2
09:14 56.5 °F 39 °F 30.1 in East 2.9 mph 3 mph 52% 0 in 387 W/m2
09:19 56.7 °F 38.7 °F 30.1 in ENE 2.9 mph 4 mph 51% 0 in 399 W/m2
09:24 56.8 °F 38.8 °F 30.1 in East 2.9 mph 6 mph 51% 0 in 411 W/m2
09:29 57 °F 39 °F 30.1 in East 2 mph 4 mph 51% 0 in 422 W/m2
09:34 57.4 °F 39.9 °F 30.1 in ENE 4.9 mph 5 mph 52% 0 in 438 W/m2
09:39 57.6 °F 40.6 °F 30.1 in SE 2 mph 4 mph 53% 0 in 446 W/m2
09:44 58.3 °F 40.3 °F 30.1 in Calm   3 mph 51% 0 in 459 W/m2
09:49 58.8 °F 40.8 °F 30.1 in East 2.9 mph 4 mph 51% 0 in 469 W/m2
09:54 59.4 °F 40.3 °F 30.1 in ESE 4 mph 8 mph 49% 0 in 54 W/m2
09:59 59.4 °F 40.6 °F 30.1 in Calm   2 mph 50% 0 in 139 W/m2
10:04 60.1 °F 40.3 °F 30.1 in NE 2.9 mph 7 mph 48% 0 in 504 W/m2
10:09 60.3 °F 41 °F 30.1 in ENE 2 mph 5 mph 49% 0 in 517 W/m2
10:14 60.6 °F 40.8 °F 30.1 in ENE 2.9 mph 6 mph 48% 0 in 527 W/m2
10:19 61.2 °F 41.4 °F 30.1 in ENE 2 mph 4 mph 48% 0 in 538 W/m2
10:24 61.2 °F 41.9 °F 30.1 in SE 2.9 mph 4 mph 49% 0 in 550 W/m2
10:29 61.5 °F 41.7 °F 30.1 in East 0.9 mph 3 mph 48% 0 in 561 W/m2
10:34 62.1 °F 41 °F 30.1 in ENE 4 mph 6 mph 46% 0 in 570 W/m2
10:39 62.1 °F 41.5 °F 30.1 in NE 0.9 mph 8 mph 47% 0 in 580 W/m2
10:44 62.2 °F 41.7 °F 30.1 in SE 6.9 mph 9 mph 47% 0 in 592 W/m2
10:49 62.2 °F 41.7 °F 30.1 in ENE 0.9 mph 2 mph 47% 0 in 603 W/m2
10:54 62.2 °F 42.3 °F 30.1 in ENE 0.9 mph 4 mph 48% 0 in 606 W/m2
10:59 63 °F 43 °F 30.1 in SSW 0.9 mph 3 mph 48% 0 in 621 W/m2
11:04 63.3 °F 42.8 °F 30.1 in ENE 4 mph 5 mph 47% 0 in 629 W/m2
11:09 63.3 °F 41.5 °F 30.1 in ENE 2 mph 3 mph 45% 0 in 640 W/m2
11:14 63.9 °F 42.1 °F 30.1 in NNW 2 mph 3 mph 45% 0 in 647 W/m2
11:19 64.2 °F 41.9 °F 30.1 in East 0.9 mph 8 mph 44% 0 in 656 W/m2
11:24 65.1 °F 42.6 °F 30.1 in ESE 4 mph 4 mph 44% 0 in 663 W/m2
11:29 64.9 °F 41.9 °F 30.1 in East 2 mph 3 mph 43% 0 in 670 W/m2
11:34 65.1 °F 41.5 °F 30.1 in NE 2.9 mph 6 mph 42% 0 in 680 W/m2
11:39 65.5 °F 43 °F 30.1 in SE 2 mph 4 mph 44% 0 in 682 W/m2
11:44 65.8 °F 42.8 °F 30.1 in East 2 mph 3 mph 43% 0 in 693 W/m2
11:49 66.6 °F 41.5 °F 30.1 in NNW 2.9 mph 4 mph 40% 0 in 700 W/m2
11:54 66.4 °F 41.9 °F 30.1 in NNW 0.9 mph 3 mph 41% 0 in 703 W/m2
11:59 66.6 °F 42.8 °F 30.1 in North 0.9 mph 7 mph 42% 0 in 708 W/m2
12:04 67.3 °F 44.1 °F 30.1 in SE 4 mph 4 mph 43% 0 in 719 W/m2
12:09 67.6 °F 43.2 °F 30.1 in ENE 2 mph 7 mph 41% 0 in 724 W/m2
12:14 68.2 °F 42.3 °F 30.1 in SSE 6 mph 6 mph 39% 0 in 731 W/m2
12:20 68.4 °F 43.2 °F 30.1 in ESE 0.9 mph 5 mph 40% 0 in 737 W/m2
12:25 68.5 °F 42.6 °F 30.1 in NE 0.9 mph 7 mph 39% 0 in 740 W/m2
12:30 68.4 °F 42.4 °F 30.1 in SE 2 mph 7 mph 39% 0 in 745 W/m2
12:35 68.5 °F 42.6 °F 30.1 in ENE 2 mph 2 mph 39% 0 in 751 W/m2
12:40 68.7 °F 43.3 °F 30.1 in NE 2 mph 5 mph 40% 0 in 754 W/m2
12:45 69.1 °F 42.4 °F 30.1 in Calm   3 mph 38% 0 in 756 W/m2
12:50 69.1 °F 42.4 °F 30 in Calm   4 mph 38% 0 in 759 W/m2
12:55 69.3 °F 43.2 °F 30 in NE 2.9 mph 4 mph 39% 0 in 759 W/m2
13:00 69.6 °F 42.3 °F 30 in East 2.9 mph 3 mph 37% 0 in 765 W/m2
13:05 70 °F 42.4 °F 30 in NNW 0.9 mph 3 mph 37% 0 in 768 W/m2
13:10 70.2 °F 42.6 °F 30 in NNE 4 mph 6 mph 37% 0 in 768 W/m2
13:15 70.2 °F 41.9 °F 30 in Calm   6 mph 36% 0 in 768 W/m2
13:20 70.3 °F 41.4 °F 30 in ESE 4 mph 9 mph 35% 0 in 772 W/m2
13:25 70.3 °F 42.1 °F 30 in East 2.9 mph 4 mph 36% 0 in 772 W/m2
13:30 70.5 °F 42.3 °F 30 in ESE 2 mph 6 mph 36% 0 in 772 W/m2
13:35 71.1 °F 43.5 °F 30 in ESE 2 mph 4 mph 37% 0 in 773 W/m2
13:40 71.4 °F 43.2 °F 30 in Calm   4 mph 36% 0 in 772 W/m2
13:45 71.4 °F 43.2 °F 30 in WNW 4 mph 4 mph 36% 0 in 773 W/m2
13:50 71.1 °F 40.5 °F 30 in NNE 0.9 mph 2 mph 33% 0 in 772 W/m2
13:55 71.1 °F 40.5 °F 30 in ENE 4.9 mph 7 mph 33% 0 in 768 W/m2
14:00 71.4 °F 41.5 °F 30 in ENE 2 mph 4 mph 34% 0 in 763 W/m2
14:05 71.8 °F 43.3 °F 30 in East 2 mph 3 mph 36% 0 in 758 W/m2
14:10 72.3 °F 42.4 °F 30 in East 2 mph 6 mph 34% 0 in 759 W/m2
14:15 72.3 °F 40.8 °F 30 in ESE 8.1 mph 8 mph 32% 0 in 759 W/m2
14:20 72.3 °F 41.5 °F 30 in SE 0.9 mph 4 mph 33% 0 in 754 W/m2
14:25 72.3 °F 40.8 °F 30 in NW 4.9 mph 5 mph 32% 0 in 752 W/m2
14:30 72.3 °F 40.8 °F 30 in East 2.9 mph 7 mph 32% 0 in 752 W/m2
14:35 72.3 °F 39.9 °F 30 in WNW 2.9 mph 5 mph 31% 0 in 745 W/m2
14:40 72.3 °F 40.8 °F 30 in SSW 0.9 mph 2 mph 32% 0 in 740 W/m2
14:45 72.5 °F 40.1 °F 30 in ENE 2 mph 2 mph 31% 0 in 733 W/m2
14:50 72.3 °F 39.9 °F 30 in WSW 2 mph 3 mph 31% 0 in 728 W/m2
14:55 72.7 °F 40.3 °F 30 in East 2 mph 6 mph 31% 0 in 726 W/m2
15:00 72.9 °F 42.1 °F 30 in NNE 0.9 mph 2 mph 33% 0 in 719 W/m2
15:05 73.4 °F 41 °F 30 in ENE 2.9 mph 7 mph 31% 0 in 714 W/m2
15:10 73.4 °F 40.1 °F 30 in NE 2 mph 8 mph 30% 0 in 708 W/m2
15:15 73.2 °F 39.9 °F 30 in Calm   3 mph 30% 0 in 701 W/m2
15:20 73.2 °F 39.9 °F 30 in NE 2.9 mph 8 mph 30% 0 in 696 W/m2
15:25 73.8 °F 39.6 °F 30 in NE 2.9 mph 4 mph 29% 0 in 691 W/m2
15:30 74.1 °F 39.9 °F 30 in NNW 4 mph 4 mph 29% 0 in 682 W/m2
15:35 74.1 °F 39.9 °F 30 in Calm   2 mph 29% 0 in 671 W/m2
15:40 74.5 °F 40.1 °F 30 in NNE 0.9 mph 4 mph 29% 0 in 666 W/m2
15:45 74.7 °F 42.8 °F 30 in SSE 0.9 mph 3 mph 32% 0 in 659 W/m2
15:50 74.3 °F 41.7 °F 30 in ESE 2.9 mph 4 mph 31% 0 in 645 W/m2
15:55 74.3 °F 39 °F 30 in West 4 mph 4 mph 28% 0 in 640 W/m2
16:00 73.8 °F 41.2 °F 30 in NE 0.9 mph 3 mph 31% 0 in 631 W/m2
16:05 73.9 °F 40.5 °F 30 in NNE 0.9 mph 5 mph 30% 0 in 622 W/m2
16:10 74.5 °F 41 °F 30 in ENE 2 mph 6 mph 30% 0 in 612 W/m2
16:15 74.7 °F 40.3 °F 30 in East 4.9 mph 5 mph 29% 0 in 606 W/m2
16:20 74.5 °F 39.2 °F 30 in NE 6 mph 6 mph 28% 0 in 598 W/m2
16:25 74.3 °F 39.9 °F 30 in SSW 2 mph 6 mph 29% 0 in 585 W/m2
16:30 74.1 °F 39.9 °F 30 in SSE 2 mph 4 mph 29% 0 in 578 W/m2
16:35 74.3 °F 39.9 °F 30 in NE 0.9 mph 4 mph 29% 0 in 563 W/m2
16:40 74.5 °F 38.3 °F 30 in WNW 2 mph 2 mph 27% 0 in 557 W/m2
16:45 74.1 °F 37.9 °F 30 in Calm   2 mph 27% 0 in 540 W/m2
16:50 74.3 °F 39.9 °F 30 in Calm   2 mph 29% 0 in 533 W/m2
16:55 74.8 °F 39.6 °F 30 in East 0.9 mph 4 mph 28% 0 in 519 W/m2
17:00 75.2 °F 39.9 °F 30 in South 0.9 mph 2 mph 28% 0 in 510 W/m2
17:05 75.6 °F 41 °F 30 in ENE 2 mph 4 mph 29% 0 in 496 W/m2
17:10 75.6 °F 40.1 °F 30 in ENE 2 mph 3 mph 28% 0 in 487 W/m2
17:15 75.6 °F 42.8 °F 30 in East 2 mph 2 mph 31% 0 in 475 W/m2
17:20 75.4 °F 41 °F 30 in ESE 0.9 mph 1 mph 29% 0 in 459 W/m2
17:25 75.4 °F 41 °F 30 in ESE 2.9 mph 4 mph 29% 0 in 446 W/m2
17:30 75.2 °F 40.8 °F 30 in SE 2.9 mph 3 mph 29% 0 in 436 W/m2
17:35 75 °F 39.7 °F 30 in ENE 2 mph 2 mph 28% 0 in 420 W/m2
17:40 74.8 °F 40.5 °F 30 in NW 0.9 mph 1 mph 29% 0 in 406 W/m2
17:45 75 °F 39.7 °F 30 in East 0.9 mph 4 mph 28% 0 in 397 W/m2
17:50 75.4 °F 40.1 °F 30 in Calm   1 mph 28% 0 in 383 W/m2
17:55 75.4 °F 40.1 °F 30 in East 2.9 mph 3 mph 28% 0 in 369 W/m2
18:00 75.2 °F 38.8 °F 30 in ENE 2 mph 5 mph 27% 0 in 355 W/m2
18:05 75 °F 37.8 °F 30 in SE 2.9 mph 3 mph 26% 0 in 343 W/m2
18:10 74.5 °F 39.2 °F 30 in ENE 2 mph 4 mph 28% 0 in 327 W/m2
18:15 74.5 °F 40.1 °F 30 in East 0.9 mph 3 mph 29% 0 in 315 W/m2
18:20 74.8 °F 40.5 °F 30 in Calm   2 mph 29% 0 in 304 W/m2
18:25 75.2 °F 42.4 °F 30 in East 0.9 mph 2 mph 31% 0 in 292 W/m2
18:30 75.4 °F 41.7 °F 30 in East 0.9 mph 3 mph 30% 0 in 278 W/m2
18:35 75.2 °F 42.4 °F 30 in West 2 mph 2 mph 31% 0 in 265 W/m2
18:40 75.6 °F 40.1 °F 30 in Calm   2 mph 28% 0 in 250 W/m2
18:45 75.6 °F 41.9 °F 30 in Calm   1 mph 30% 0 in 237 W/m2
18:50 75.6 °F 42.8 °F 30 in Calm     31% 0 in 225 W/m2
18:55 75.4 °F 43.5 °F 30 in Calm     32% 0 in 207 W/m2
19:00 75 °F 43.2 °F 30 in Calm     32% 0 in 183 W/m2
19:05 74.8 °F 46 °F 30 in WSW 0.9 mph 1 mph 36% 0 in 178 W/m2
19:11 74.8 °F 46 °F 30 in WSW 0.9 mph 2 mph 36% 0 in 160 W/m2
19:16 74.5 °F 46.6 °F 30 in WSW 0.9 mph 2 mph 37% 0 in 144 W/m2
19:21 73.6 °F 47.1 °F 30 in Calm   1 mph 39% 0 in 130 W/m2
19:26 72.7 °F 44.2 °F 30 in SE 2 mph 2 mph 36% 0 in 116 W/m2
19:31 72 °F 44.2 °F 30 in SSE 0.9 mph 2 mph 37% 0 in 100 W/m2
19:36 71.1 °F 44.2 °F 30 in SW 0.9 mph 2 mph 38% 0 in 88 W/m2
19:41 70.3 °F 46.2 °F 30 in SW 0.9 mph 1 mph 42% 0 in 74 W/m2
19:46 69.6 °F 44.2 °F 30 in SW 0.9 mph 2 mph 40% 0 in 65 W/m2
19:51 69.1 °F 45 °F 30 in Calm   1 mph 42% 0 in 54 W/m2
19:56 68.7 °F 45.9 °F 30 in SW 0.9 mph 1 mph 44% 0 in 44 W/m2
20:01 68.4 °F 45 °F 30 in SW 0.9 mph 2 mph 43% 0 in 25 W/m2
20:06 68.2 °F 45.5 °F 30 in SW 0.9 mph 2 mph 44% 0 in 23 W/m2
20:11 67.5 °F 44.8 °F 30 in Calm   2 mph 44% 0 in 21 W/m2
20:16 66.6 °F 44.1 °F 30 in Calm   2 mph 44% 0 in 16 W/m2
20:21 66 °F 44.1 °F 30 in SW 0.9 mph 2 mph 45% 0 in 14 W/m2
20:27 65.5 °F 44.2 °F 30 in SW 0.9 mph 2 mph 46% 0 in 12 W/m2
20:32 64.6 °F 43.9 °F 30 in SW 0.9 mph 2 mph 47% 0 in 9 W/m2
20:37 63.9 °F 42.6 °F 30 in Calm     46% 0 in 7 W/m2
20:42 63.3 °F 43.3 °F 30 in Calm   2 mph 48% 0 in 0 W/m2
20:47 63 °F 43 °F 30 in Calm     48% 0 in 0 W/m2
20:52 62.4 °F 42.4 °F 30 in Calm     48% 0 in 0 W/m2
20:57 62.1 °F 42.6 °F 30 in Calm     49% 0 in 0 W/m2
21:02 61.7 °F 42.8 °F 30 in Calm     50% 0 in 0 W/m2
21:07 61.2 °F 42.4 °F 30 in Calm     50% 0 in 0 W/m2
21:12 60.8 °F 42.1 °F 30 in Calm     50% 0 in 0 W/m2
21:17 60.4 °F 42.3 °F 30 in Calm     51% 0 in 0 W/m2
21:22 60.1 °F 42.4 °F 30 in Calm     52% 0 in 0 W/m2
21:27 59.7 °F 42.1 °F 30 in Calm     52% 0 in 0 W/m2
21:32 59.4 °F 42.3 °F 30 in Calm     53% 0 in 0 W/m2
21:37 58.8 °F 41.7 °F 30 in Calm     53% 0 in 0 W/m2
21:42 58.5 °F 41.4 °F 30 in Calm     53% 0 in 0 W/m2
21:47 57.9 °F 41.4 °F 30 in Calm     54% 0 in 0 W/m2
21:52 57.7 °F 41.2 °F 30 in Calm     54% 0 in 0 W/m2
21:57 57.4 °F 41.4 °F 30 in Calm     55% 0 in 0 W/m2
22:02 56.8 °F 40.8 °F 30 in Calm     55% 0 in 0 W/m2
22:07 56.7 °F 41.2 °F 30 in Calm     56% 0 in 0 W/m2
22:12 56.3 °F 40.8 °F 30 in Calm     56% 0 in 0 W/m2
22:17 56.1 °F 40.6 °F 30 in Calm     56% 0 in 0 W/m2
22:22 55.9 °F 41 °F 30 in Calm     57% 0 in 0 W/m2
22:27 55.8 °F 40.8 °F 30 in Calm     57% 0 in 0 W/m2
22:32 55.6 °F 41 °F 30 in Calm     58% 0 in 0 W/m2
22:37 55.2 °F 40.6 °F 30 in Calm     58% 0 in 0 W/m2
22:42 54.9 °F 40.8 °F 30 in Calm     59% 0 in 0 W/m2
22:47 54.7 °F 40.6 °F 30 in Calm     59% 0 in 0 W/m2
22:52 54.3 °F 40.8 °F 30 in Calm     60% 0 in 0 W/m2
22:57 54.1 °F 41 °F 30 in Calm     61% 0 in 0 W/m2
23:02 54 °F 41.2 °F 30 in Calm     62% 0 in 0 W/m2
23:07 53.8 °F 40.6 °F 30 in Calm     61% 0 in 0 W/m2
23:12 53.6 °F 40.8 °F 30 in Calm     62% 0 in 0 W/m2
23:17 53.8 °F 40.6 °F 30 in Calm     61% 0 in 0 W/m2
23:22 54 °F 40.8 °F 30 in Calm     61% 0 in 0 W/m2
23:27 54.1 °F 41 °F 30 in Calm     61% 0 in 0 W/m2
23:32 54.1 °F 41 °F 30 in Calm     61% 0 in 0 W/m2
23:37 54 °F 41.2 °F 30 in Calm     62% 0 in 0 W/m2
23:42 53.8 °F 41 °F 30 in Calm     62% 0 in 0 W/m2
23:47 53.4 °F 41.2 °F 30 in Calm     63% 0 in 0 W/m2
23:52 53.2 °F 41 °F 30 in West 2 mph 2 mph 63% 0 in 0 W/m2
23:57 53.2 °F 41 °F 30 in West 2 mph 2 mph 63% 0 in 0 W/m2
Juneau County Weather
Compliments of Weather Underground - 4 mb